Weather History for Wausau, WI

Change the Weather History Date:

Saturday, January 25, 2014

  Actual Average Record
Temperature  
Mean Temperature 10 °F 15 °F  
Max Temperature 25 °F 23 °F 53 °F (1944)
Min Temperature -5 °F 6 °F -31 °F (1904)
Degree Days  
Heating Degree Days 55 50  
Month to date heating degree days 1446 1267  
Since 1 July heating degree days 4919 4553  
Cooling Degree Days 0 0  
Month to date cooling degree days 0 0  
Year to date cooling degree days 0 0  
Moisture  
Dew Point -4 °F    
Average Humidity 66    
Maximum Humidity 80    
Minimum Humidity 51    
Precipitation  
Precipitation 0.02 in 0.03 in 0.48 in (1899)
Month to date precipitation 1.12 0.83  
Year to date precipitation 1.12 0.83  
Snow  
Snow 0.50 in 0.50 in 7.00 in (1950)
Month to date snowfall 17.2 11.0  
Since 1 July snowfall 45.9 33.2  
Snow Depth 18.00 in    
Sea Level Pressure  
Sea Level Pressure 29.58 in    
Wind  
Wind Speed 14 mph (NW)    
Max Wind Speed 24 mph    
Max Gust Speed 36 mph    
Visibility 5 miles    
Events Fog , Snow    
T = Trace of Precipitation, MM = Missing Value Source: NWS Daily Summary

Daily Weather History Graph

Daily Weather History Graph

Search for Another Location

Airport:

Trip Planner

Search our weather history database for the weather conditions in past years. The results will help you decide how hot, cold, wet, or windy it might be!

Date:

Astronomy

Jan. 25, 2014 Rise Set
Actual Time 7:25 AM CST 4:56 PM CST
Civil Twilight 6:53 AM CST 5:28 PM CST
Nautical Twilight 6:17 AM CST 6:04 PM CST
Astronomical Twilight 5:43 AM CST 6:38 PM CST
Moon 1:56 AM CST (1/25) 11:57 AM CST (1/25)
Length of Visible Light 10h 35m
Length of Day
9h 31m
Waning Crescent, 34% of the Moon is Illuminated
Jan 25
Waning Crescent
Jan 30
New
Feb 6
First Quarter
Feb 14
Full
Feb 22
Last Quarter

Hourly Weather History & Observations

Time (CST) Temp. Windchill Dew Point Humidity Pressure Visibility Wind Dir Wind Speed Gust Speed Precip Events Conditions
12:54 AM 23.0 °F 9.2 °F 12.9 °F 65% 29.37 in 10.0 mi NW 17.3 mph - N/A   Scattered Clouds
1:54 AM 19.0 °F 4.5 °F 8.1 °F 62% 29.40 in 10.0 mi NNW 16.1 mph 23.0 mph N/A   Mostly Cloudy
2:54 AM 17.1 °F 2.5 °F 5.0 °F 59% 29.43 in 7.0 mi NNW 15.0 mph 26.5 mph 0.00 in Snow Light Snow
3:54 AM 14.0 °F -3.9 °F 5.0 °F 67% 29.46 in 7.0 mi WNW 20.7 mph 29.9 mph 0.00 in   Overcast
4:04 AM 14.0 °F -2.0 °F 6.1 °F 71% 29.40 in 1.8 mi NNW 16.1 mph 26.5 mph 0.00 in Snow Light Snow
4:13 AM 12.9 °F -2.2 °F 8.1 °F 81% 29.40 in 0.5 mi NW 13.8 mph 24.2 mph 0.00 in Snow Snow
4:21 AM 12.0 °F -2.7 °F 9.0 °F 88% 29.40 in 0.5 mi NW 12.7 mph - 0.00 in Fog , Snow Snow
4:32 AM 12.0 °F -3.4 °F 9.0 °F 88% 29.40 in 2.0 mi NW 13.8 mph 24.2 mph 0.00 in Snow Light Snow
4:41 AM 12.0 °F -4.0 °F 5.0 °F 73% 29.41 in 3.0 mi NW 15.0 mph 24.2 mph 0.00 in Snow Light Snow
4:54 AM 10.9 °F -4.1 °F 5.0 °F 77% 29.49 in 4.0 mi NNW 12.7 mph - 0.00 in Snow Light Snow
5:04 AM 10.9 °F -2.6 °F 6.1 °F 81% 29.42 in 2.0 mi NW 10.4 mph - 0.00 in Snow Light Snow
5:12 AM 10.9 °F -7.5 °F 6.1 °F 81% 29.43 in 0.8 mi WNW 19.6 mph 23.0 mph 0.00 in Snow Light Snow
5:21 AM 10.0 °F -8.6 °F 6.1 °F 84% 29.43 in 0.2 mi NW 19.6 mph 26.5 mph 0.00 in Fog , Snow Snow
5:30 AM 9.0 °F -8.5 °F 6.1 °F 88% 29.44 in 0.2 mi NNW 16.1 mph 28.8 mph 0.01 in Fog , Snow Heavy Snow
5:54 AM 8.1 °F -10.2 °F 3.0 °F 80% 29.54 in 0.8 mi NNW 17.3 mph 26.5 mph 0.01 in Snow Light Snow
5:57 AM 8.1 °F -8.4 °F 1.9 °F 76% 29.46 in 1.0 mi NNW 13.8 mph 26.5 mph 0.00 in Snow Light Snow
6:02 AM 8.1 °F -7.0 °F 1.0 °F 73% 29.46 in 2.0 mi NNW 11.5 mph 23.0 mph 0.00 in Snow Light Snow
6:11 AM 7.0 °F -9.8 °F -0.9 °F 70% 29.47 in 5.0 mi NNW 13.8 mph 24.2 mph 0.00 in Snow Blowing Snow
6:29 AM 6.1 °F -10.9 °F -2.9 °F 67% 29.48 in 6.0 mi NNW 13.8 mph - 0.00 in Snow Blowing Snow
6:54 AM 5.0 °F -13.6 °F -4.0 °F 66% 29.58 in 7.0 mi NNW 16.1 mph 24.2 mph 0.00 in   Scattered Clouds
7:16 AM 5.0 °F -11.6 °F -2.0 °F 73% 29.52 in 1.8 mi NW 12.7 mph 23.0 mph 0.00 in Snow Light Snow
7:32 AM 3.0 °F -17.8 °F -6.0 °F 66% 29.53 in 1.8 mi NW 19.6 mph 27.6 mph 0.00 in Snow Blowing Snow
7:37 AM 3.0 °F -16.7 °F -8.0 °F 60% 29.54 in 3.0 mi NW 17.3 mph 27.6 mph 0.00 in Snow Blowing Snow
7:54 AM 3.0 °F -14.1 °F -8.0 °F 60% 29.63 in 6.0 mi NW 12.7 mph 29.9 mph 0.00 in Snow Blowing Snow
8:45 AM 1.9 °F -16.2 °F -6.0 °F 69% 29.57 in 10.0 mi WNW 13.8 mph - N/A   Mostly Cloudy
8:54 AM 1.9 °F -17.5 °F -7.1 °F 66% 29.66 in 9.0 mi NW 16.1 mph - N/A   Overcast
9:25 AM 1.9 °F -19.2 °F -8.0 °F 63% 29.58 in 6.0 mi NW 19.6 mph 24.2 mph N/A   Haze
9:41 AM 1.9 °F -18.7 °F -8.0 °F 63% 29.59 in 2.5 mi NW 18.4 mph 26.5 mph N/A Snow Blowing Snow
9:52 AM 1.4 °F -19.9 °F -7.6 °F 66% 29.60 in 3.0 mi NW 19.6 mph 25.3 mph N/A Snow Blowing Snow
9:54 AM 1.0 °F -20.9 °F -8.0 °F 66% 29.68 in 3.0 mi WNW 20.7 mph 25.3 mph N/A Snow Blowing Snow
9:59 AM 1.0 °F -20.4 °F -8.0 °F 66% 29.60 in 2.5 mi NW 19.6 mph 25.3 mph N/A Snow Blowing Snow
10:05 AM 1.0 °F -20.4 °F -8.0 °F 66% 29.60 in 3.0 mi WNW 19.6 mph 25.3 mph N/A Snow Blowing Snow
10:09 AM 1.0 °F -20.9 °F -8.0 °F 66% 29.60 in 3.0 mi NW 20.7 mph 26.5 mph N/A Snow Blowing Snow
10:19 AM 1.9 °F -16.2 °F -8.0 °F 63% 29.61 in 5.0 mi NW 13.8 mph - N/A Snow Blowing Snow
10:41 AM 1.9 °F -16.2 °F -8.0 °F 63% 29.62 in 2.5 mi NW 13.8 mph 27.6 mph 0.00 in   Overcast
10:50 AM 1.4 °F -18.8 °F -7.6 °F 66% 29.62 in 4.0 mi WNW 17.3 mph 24.2 mph 0.00 in Snow Light Snow
10:54 AM 1.0 °F -19.9 °F -8.0 °F 66% 29.71 in 3.0 mi NW 18.4 mph 24.2 mph 0.00 in Snow Light Snow
11:33 AM 1.9 °F -18.7 °F -9.0 °F 60% 29.63 in 5.0 mi NW 18.4 mph 26.5 mph 0.00 in Snow Blowing Snow
11:54 AM 3.0 °F -16.1 °F -9.0 °F 57% 29.71 in 9.0 mi WNW 16.1 mph 21.9 mph 0.00 in   Overcast
12:54 PM 3.0 °F -15.5 °F -9.9 °F 55% 29.70 in 9.0 mi NW 15.0 mph 23.0 mph 0.00 in   Mostly Cloudy
1:54 PM 5.0 °F -12.3 °F -9.0 °F 52% 29.70 in 6.0 mi NW 13.8 mph - N/A   Haze
2:54 PM 5.0 °F -15.2 °F -9.0 °F 52% 29.72 in 10.0 mi WNW 19.6 mph 23.0 mph N/A   Scattered Clouds
3:54 PM 5.0 °F -13.6 °F -9.9 °F 50% 29.73 in 10.0 mi WNW 16.1 mph 25.3 mph N/A   Clear
4:54 PM 3.0 °F -14.8 °F -11.0 °F 52% 29.76 in 10.0 mi WNW 13.8 mph - N/A   Clear
5:54 PM 1.0 °F -16.6 °F -11.9 °F 55% 29.78 in 10.0 mi WNW 12.7 mph - N/A   Clear
6:54 PM -0.9 °F -15.3 °F -13.0 °F 57% 29.80 in 10.0 mi West 8.1 mph - N/A   Clear
7:54 PM -2.0 °F -17.7 °F -14.1 °F 57% 29.78 in 10.0 mi WNW 9.2 mph - N/A   Clear
8:54 PM -2.0 °F -17.7 °F -14.1 °F 57% 29.78 in 10.0 mi West 9.2 mph - N/A   Clear
9:54 PM -2.0 °F -12.2 °F -14.1 °F 57% 29.77 in 10.0 mi SW 4.6 mph - N/A   Clear
10:54 PM -2.9 °F -11.2 °F -13.0 °F 62% 29.72 in 10.0 mi SSE 3.5 mph - N/A   Scattered Clouds
11:54 PM -0.9 °F -8.9 °F -11.0 °F 62% 29.68 in 10.0 mi South 3.5 mph - N/A   Overcast